INTELSAT 23 (IS-23)

Last updated on Thu Oct 30 2025 00:02:49 GMT+0000 (Coordinated Universal Time)

1 38867U 12057A 25302.46059097 -.00000275 00000+0 00000+0 0 9992 2 38867 0.0183 253.5602 0002053 341.3452 275.9618 1.00265068 47648
UTC large
Height (km)
Speed (km/s)
/
Latitude / Longitude
Inclination (degrees)
Orbital Period (minutes)
Azimuth
Elevation
Range (km)
Doppler Factor

Next 0 passes for location: London (51.5072 / 0.1276)

Sorry there are no passes over London.